Location: Strawberry
(45.6646°N, 111.9596°W)
Time: 21:32:05
(UTC+00:00)

Vanguard 1 Rocket - Pass Details

Date: 07 October 2022
Orbit: 650 x 4225 km, 34.3° (Epoch: 01 December)

Event Time Altitude Azimuth Distance (km) Brightness Sun altitude
Rises 07:42:31 0° 276° (W) 6,343 11.7 -49.5°
Enters shadow 07:45:56 - 270° (W) 5,369 11.2 -49.3°
Reaches altitude 10° 07:48:39 10° 263° (W) 4,599 - -49.2°
Maximum altitude 07:56:17 20° 222° (SW) 2,882 - -48.9°
Drops below altitude 10° 08:01:29 10° 176° (S) 2,965 - -48.7°
Sets 08:04:23 0° 159° (SSE) 3,581 - -48.5°
